Location: Caltech
(34.1382°N, 118.1253°W)
Time: 04:58:23
(UTC-07:00)

Iridium 12 - Visible Passes

Search period start: 19 April 2014 00:00
Search period end: 29 April 2014 00:00
Orbit: 776 x 779 km, 86.4° (Epoch: 18 April)

Date Brightness Start Highest point End Pass type
(mag) Time Alt. Az. Time Alt. Az. Time Alt. Az.
19 Apr 7.9 05:28:47 10° NNE 05:33:11 27° E 05:37:33 10° SE visible
19 Apr 9.2 20:05:30 10° W 20:07:08 11° WNW 20:08:47 10° WNW visible
20 Apr 8.6 04:56:42 10° NE 04:59:24 14° ENE 05:02:07 10° ESE visible
22 Apr 7.1 05:28:29 10° NNE 05:33:23 40° E 05:38:14 10° SSE visible
23 Apr 8.2 04:55:46 10° NNE 04:59:41 21° E 05:03:34 10° SE visible
24 Apr 8.9 04:24:49 10° ENE 04:25:51 11° ENE 04:26:53 10° E visible
25 Apr 6.2 05:28:22 10° N 05:33:31 61° E 05:38:39 10° SSE visible
26 Apr 7.5 04:55:18 10° NNE 04:59:54 31° E 05:04:28 10° SE visible
27 Apr 8.4 04:22:56 10° NE 04:26:09 16° ENE 04:29:21 10° ESE visible
28 Apr 5.6 05:28:24 10° N 05:33:37 89° W 05:38:49 10° S visible
